Regional Weather Roundup
Issued by NWS

Home | Current Version | Previous Version | Graphics & Text | Print | Product List | Glossary Off
Versions: 1 2 3 4 5 6 7 8 9 10 11 12 13 14 15 16 17 18 19 20 21 22 23 24 25 26 27 28 29 30 31 32 33 34 35 36 37 38 39 40 41 42 43 44 45 46 47 48 49 50

000
ASUS44 KMEG 251000
RWRTN
TENNESSEE HOURLY STATE WEATHER ROUNDUP
NATIONAL WEATHER SERVICE MEMPHIS TN
500 AM CDT FRI JUL 25 2014

TNZ002-004-019-021-049-052-054-088>092-251100-
WEST TENNESSEE

CITY           SKY/WX    TMP DP  RH WIND       PRES   REMARKS
MEMPHIS INTL   CLEAR     67  60  78 CALM      30.02S
NWS MEMPHIS      N/A     61 N/A N/A MISG        N/A
JACKSON        CLEAR     59  57  93 CALM      30.04S FOG
DYERSBURG      CLEAR     61  52  72 NE3       30.05S
UNION CITY     CLEAR     57  57 100 CALM      30.04R
PARIS          CLEAR     55  54  94 NE3       30.06S
LEXINGTON      CLEAR     59  57  94 CALM      30.03S
SAVANNAH       CLOUDY    61  61 100 CALM      30.04R VSB 1/4
$$

TNZ008-025-027-028-033-062-065-066-251100-
NORTH MIDDLE TENNESSEE

CITY           SKY/WX    TMP DP  RH WIND       PRES   REMARKS
NASHVILLE      CLEAR     63  58  83 NE3       30.06R
CLARKSVILLE    CLEAR     57  54  89 CALM      30.06R
COOKEVILLE     CLEAR     55  55 100 CALM      30.06R
CROSSVILLE     FOG       58  57  97 CALM      30.09R VSB 1/4
$$

TNZ061-075-076-078-094-096-097-251100-
SOUTH MIDDLE TENNESSEE

CITY           SKY/WX    TMP DP  RH WIND       PRES   REMARKS
FAYETTEVILLE   CLEAR     63  61  94 NE7       30.04R
TULLAHOMA      CLEAR     63  61  94 CALM      30.06R
WINCHESTER     MOCLDY    59  59 100 CALM      30.05R
COLUMBIA       PTCLDY    61  61 100 CALM      30.04R
SHELBYVILLE      N/A     61  61 100 CALM      30.06R VSB 1
$$

TNZ017-018-042-046-047-251100-
NORTHEAST TENNESSEE

CITY           SKY/WX    TMP DP  RH WIND       PRES   REMARKS
TRI CITIES     CLEAR     61  57  87 CALM      30.07R
ELIZABETHTON   PTSUNNY   61  61 100 CALM      30.04S
$$

TNZ012-013-036-069-073-074-251100-
CENTRAL EAST TENNESSEE

CITY           SKY/WX    TMP DP  RH WIND       PRES   REMARKS
KNOXVILLE      CLEAR     63  61  93 CALM      30.04R
OAK RIDGE      CLEAR     63  60  90 CALM      30.06R
GATLINBURG     CLOUDY    63  61  94 CALM      30.04R
$$

TNZ083-085-099-251100-
SOUTHEAST TENNESSEE

CITY           SKY/WX    TMP DP  RH WIND       PRES   REMARKS
CHATTANOOGA    PTCLDY    66  62  87 CALM      30.03R
$$

SKY/WX REPORTED AS FAIR MEANS FEW OR NO CLOUDS BELOW
12 THOUSAND FEET.



USA.gov is the U.S. government's official web portal to all federal, state and local government web resources and services.